Hourly Data Report for November 12, 2016

All times are specified in Local Standard Time (LST). Add 1 hour to adjust for Daylight Saving Time where and when it is observed.

KITCHENER/WATERLOO
ONTARIO

43°27'39.000" N
80°22'43.000" W
321.60 m
6144239
71368
YKF

Download Data

Hourly Data (November 2016)
Hourly Data Report for November 12, 2016
Temp Definition
°C
Dew Point Temp Definition
°C
Rel Hum Definition
%
Wind Dir Definition
10's deg

Wind Spd Definition
km/h
Visibility Definition
km
Stn Press Definition
kPa
Hmdx Definition


Wind Chill Definition


Weather Definition


TIME
00:00 Legend Double Dagger -2.6 -5.7 79 29 11 16.1 98.86   -7 LegendNANA
01:00 Legend Double Dagger -3.6 -6.1 83 30 8 16.1 98.88   -7 LegendNANA
02:00 Legend Double Dagger -3.6 -5.8 85 31 9 16.1 98.90   -7 LegendNANA
03:00 Legend Double Dagger -3.1 -5.2 85 31 4 16.1 98.89   -5 LegendNANA
04:00 Legend Double Dagger -3.1 -5.0 87 21 4 16.1 98.89   -5 LegendNANA
05:00 Legend Double Dagger -5.0 -5.8 94 24 5 16.1 98.90   -7 LegendNANA
06:00 Legend Double Dagger -4.4 -5.6 91 22 4 16.1 98.91   -6 LegendNANA
07:00 Legend Double Dagger -4.3 -6.0 88 22 9 16.1 98.91   -8 LegendNANA
08:00 Legend Double Dagger -2.0 -4.8 81 21 5 16.1 98.95   -4 LegendNANA
09:00 Legend Double Dagger 1.8 -2.8 72 24 17 16.1 98.98     LegendNANA
10:00 Legend Double Dagger 4.7 -0.8 67 25 17 16.1 98.92     LegendNANA
11:00 Legend Double Dagger 5.9 0.1 66 28 26 16.1 98.92     LegendNANA
12:00 Legend Double Dagger 7.3 0.0 60 25 28 16.1 98.80     LegendNANA
13:00 Legend Double Dagger 7.7 -0.6 56 26 28 16.1 98.70     LegendNANA
14:00 Legend Double Dagger 8.2 -2.3 47 26 26 16.1 98.61     LegendNANA
15:00 Legend Double Dagger 8.0 -2.3 48 24 24 16.1 98.53     LegendNANA
16:00 Legend Double Dagger 7.1 -3.0 49 23 28 16.1 98.48     LegendNANA
17:00 Legend Double Dagger 5.2 -2.9 56 24 21 16.1 98.43     LegendNANA
18:00 Legend Double Dagger 4.5 -2.5 60 24 21 16.1 98.40     LegendNANA
19:00 Legend Double Dagger 4.1 -2.1 64 23 21 16.1 98.36     LegendNANA
20:00 Legend Double Dagger 4.1 -2.3 63 23 26 16.1 98.29     LegendNANA
21:00 Legend Double Dagger 4.3 -2.1 63 24 18 16.1 98.28     LegendNANA
22:00 Legend Double Dagger 4.5 -2.3 61 24 22 16.1 98.23     LegendNANA
23:00 Legend Double Dagger 4.1 -2.3 63 25 24 16.1 98.19     LegendNANA

Notes on Data Quality.

Legend

  • E = Estimated
  • M = Missing
  • NA = Not Available
  • ‡ = Partner data that is not subject to review by the National Climate Archives
Date modified: